198  
ASUS44 KMAF 092010  
RWRMAF  
MIDLAND AREA WEATHER ROUNDUP  
NATIONAL WEATHER SERVICE MIDLAND TX  
200 PM CST FRI DEC 09 2022  
   
..IN SOUTHWEST TEXAS AND SOUTHEAST NEW MEXICO
 
 
 
CITY SKY/WX TMP DP RH WIND PRES REMARKS
 
ALPINE SUNNY 73 49 42 SW13G23 30.11F  
ANDREWS NOT AVBL  
ARTESIA CLOUDY 52 27 37 NE7 30.08F  
BIG SPRING CLOUDY 56 54 94 E12 30.06F FOG  
CARLSBAD CLOUDY 56 33 42 NE5 30.04F  
DRYDEN N/A 67 60 78 E10 30.05F  
FORT STOCKTON MOSUNNY 68 56 65 SE15 30.02F  
GUAD PASS N/A N/A N/A N/A MISG N/A  
HOBBS CLOUDY 52 39 62 E6 30.07F  
LAMESA NOT AVBL  
MARFA SUNNY 69 52 54 S18 30.08F  
MIDLAND AIRPK DRIZZLE 56 55 96 NE5 30.06F FOG  
MIDLAND INTL FOG 57 57 100 NE7 30.05F VSB 1/2  
ODESSA CLOUDY 59 59 100 E9 30.05F FOG  
PECOS PTSUNNY 59 51 75 NW5 30.05F  
PRESIDIO FAIR 73 58 59 SE3 30.02F  
SEMINOLE CLOUDY 52 47 81 E8 30.11F  
SNYDER CLOUDY 49 48 95 NE10 30.09F  
WINK CLOUDY 63 58 83 S3 30.02F HAZE  

   
..OTHER STATIONS IN TEXAS
 
 
 
CITY SKY/WX TMP DP RH WIND PRES REMARKS
 
ABILENE FOG 60 59 96 N6 30.07F VSB 1/2  
AMARILLO PTSUNNY 52 30 43 S16 30.06F  
AUSTIN MOSUNNY 78 65 63 SW6 30.05F  
BROWNSVILLE MOSUNNY 81 70 69 SE14 30.03F  
CORPUS CHRISTI MOSUNNY 82 70 66 S17 30.04F  
DALLAS FTW CLOUDY 65 57 75 NE6 30.08F  
DEL RIO CLOUDY 73 65 75 SE13G18 30.01F  
EL PASO CLOUDY 62 40 44 SW5 30.05F  
HOUSTON INT MOSUNNY 80 66 62 CALM 30.06F  
LUBBOCK CLOUDY 49 39 68 SE10 30.08F  
SAN ANGELO CLOUDY 73 58 59 S9 30.03F HAZE  
SAN ANTONIO PTSUNNY 77 64 64 SE8 30.06F  
WACO MOSUNNY 77 62 59 S9 30.06F  
WICHITA FALLS PTSUNNY 47 30 51 NW7 30.15F  

   
..OTHER LOCATIONS IN NEW MEXICO
 
 
 
CITY SKY/WX TMP DP RH WIND PRES REMARKS
 
ALAMOGORDO CLOUDY 55 36 47 SE3 30.06F  
ALBUQUERQUE MOSUNNY 48 18 30 CALM 30.11F  
CANNON AFB CLOUDY 51 25 36 S9 30.06F  
CLOVIS CLOUDY 49 27 42 S8 30.09F  
HOLLOMAN AFB CLOUDY 54 37 52 NW3 30.10F  
ROSWELL PTSUNNY 53 27 36 VRB3 30.06F  
RUIDOSO N/A 54 34 47 SW20G29 30.11F  
SANTA FE SUNNY 48 24 39 SW6 30.10F  
TRUTH OR CONSE MOSUNNY 50 27 40 CALM 30.07F  
TUCUMCARI MOSUNNY 50 18 28 CALM 30.05F  

 
 
 
CLICK HERE TO GO TO PREVIOUS BULLETINS.

The Nexlab TX Page
The Nexlab NM Page Main Text Page